Regional Weather Roundup
Issued by NWS Glasgow, MT

Home | Current Version | Previous Version | Text Only | Print | Product List | Glossary On
Versions: 1 2 3 4 5 6 7 8 9 10 11 12 13 14 15 16 17 18 19 20 21 22 23 24 25 26 27 28 29 30 31 32 33 34 35 36 37 38 39 40 41 42 43 44 45 46 47 48 49 50
000
ASUS45 KGGW 290615
RWRGGW
HOURLY REGIONAL WEATHER ROUNDUP FOR NORTHEAST MONTANA
NATIONAL WEATHER SERVICE GLASGOW MONTANA
1200 AM MDT SAT AUG 29 2015

NOTE: "FAIR" INDICATES FEW OR NO CLOUDS BELOW 12,000 FEET WITH NO
SIGNIFICANT WEATHER AND/OR OBSTRUCTIONS TO VISISBILITY.

NORTHEAST MONTANA


CITY           SKY/WX    TMP DP  RH WIND       PRES   REMARKS
GLASGOW        MOCLDY    64  41  42 SE13      29.90S HAZE
6HR MIN TEMP:  64; 6HR MAX TEMP:  82;

PLENTYWOOD       N/A     63  44  50 E1          N/A
WOLF POINT     CLOUDY    59  42  53 CALM      29.92R HAZE
JORDAN           N/A     65  40  39 E6        29.93F
WINNETT          N/A     66  35  31 S3          N/A
SIDNEY         PTCLDY    57  48  72 S5        29.93S
GLENDIVE       MOCLDY    64  45  48 SW5       29.97S
MALTA            N/A     76  43  30 E9G18       N/A
SCOBEY           N/A     60  42  51 CALM      29.92  HAZE

FORT PECK REPORTS


CITY           SKY/WX    TMP DP  RH WIND       PRES   REMARKS
FORT PECK        N/A     71  50  47 SE7         N/A
THE PINES        N/A     72  45  37 S3          N/A

SOUTHEAST MONTANA


CITY           SKY/WX    TMP DP  RH WIND       PRES   REMARKS
BILLINGS       PTCLDY    73  40  30 S6        29.99F
MILES CITY     PTCLDY    69  43  38 SE9       29.96F HAZE
BAKER          CLOUDY    58  47  66 CALM      30.02S HAZE
LIVINGSTON     PTCLDY    65  39  38 S5        30.05S

CENTRAL MONTANA


CITY           SKY/WX    TMP DP  RH WIND       PRES   REMARKS
HAVRE          CLOUDY    74  43  32 S8        29.90S HAZE
LEWISTOWN      CLOUDY    71  39  31 CALM      30.05R HAZE
GREAT FALLS    CLOUDY    74  41  30 S9        29.98S HAZE
CUT BANK       CLOUDY    67  37  33 W8        29.96S HAZE
HELENA         CLOUDY    74  40  29 S6        30.03F SMOKE
BUTTE          CLOUDY    63  40  42 E5        30.16S HAZE
BOZEMAN        MOCLDY    67  45  45 SW10      30.06R HAZE

WESTERN MONTANA


CITY           SKY/WX    TMP DP  RH WIND       PRES   REMARKS
MISSOULA       CLOUDY    64  50  60 E9        29.98F HAZE
KALISPELL      NOT AVBL

NORTH DAKOTA


CITY           SKY/WX    TMP DP  RH WIND       PRES   REMARKS
WILLISTON      CLOUDY    60  48  64 W3        29.92S HAZE
DICKINSON      CLOUDY    56  48  74 S8        29.96F HAZE
MINOT          CLOUDY    65  60  84 CALM      29.88F
BISMARCK       CLEAR     66  64  93 SE5       29.92S

SOUTHERN SASKATCHEWAN


CITY           SKY/WX    TMP DP  RH WIND       PRES   REMARKS
REGINA         PTCLDY    59  54  82 SE9       29.85F
ESTEVAN        CLOUDY    57  54  88 SW5       29.88S SMOKE
SWIFT CURRENT  CLEAR     73  43  33 SW14G22   29.85S HAZE



USA.gov is the U.S. government's official web portal to all federal, state and local government web resources and services.